Flag for U.S.A. Weather past 2 weeks in Bryan – College Station, Texas, U.S.A.

Now
73 °F

Passing clouds.


Feels Like: 72 °F
Forecast: 71 / 88 °F
Wind: No wind

Location: Easterwood Field

Current Time: Sep 30, 2014 at 5:21:47 AM

Latest Report: Sep 30, 2014 at 4:53 AM


Visibility: 10 mi

Pressure: 29.86 "Hg

Humidity: 84%

Dew point: 68 °F

Location of Bryan – College StationLocation

Historic Weather in Bryan – College Station — Graph

°F

Bryan – College Station temperature yesterday

Maximum temperature yesterday: 87 °F (at 2:53 PM)
Minimum temperature yesterday: 67 °F (at 6:53 AM)
Average temperature yesterday: 78 °F

Past Weeks' High & Low Weather Summary

 TemperatureHumidityPressure
High92 °F (Sep 16, 3:53 PM)100% (Sep 19, 4:53 AM)30.15 "Hg (Sep 19, 4:53 AM)
Low60 °F (Sep 24, 6:53 AM)34% (Sep 24, 3:53 PM)29.83 "Hg (Sep 18, 3:53 PM)
Average77 °F73%30.00 "Hg
* Reported Sep 15 3:53 AM — Sep 30 3:53 AM, Bryan – College Station, Weather by CustomWeather, © 2014

Note: Actual official high and low records may vary slightly from our data, if they occured in-between our weather recording intervals... More about our weather records

Advertising

Bryan – College Station weather history for previous 24 hours

 ConditionsComfort  
Time TempWeatherWind HumidityBarometerVisibility
3:53 AM
Sep 30
73 °FOvercast.No wind88%29.87 "Hg10 mi
2:53 AM73 °FClear.No wind84%29.87 "Hg10 mi
1:53 AM75 °FClear.3 mph79%29.86 "Hg10 mi
12:53 AM75 °FClear.No wind79%29.86 "Hg10 mi
11:53 PM
Sep 29
75 °FClear.5 mph79%29.87 "Hg10 mi
10:53 PM76 °FMild.N/A69%29.88 "HgN/A
9:53 PM77 °FClear.No wind66%29.88 "Hg10 mi
8:53 PM77 °FClear.3 mph66%29.87 "Hg10 mi
7:53 PM80 °FSunny.No wind64%29.87 "Hg10 mi
6:53 PM86 °FSunny.No wind45%29.87 "Hg10 mi
5:53 PM86 °FSunny.6 mph45%29.86 "Hg10 mi
4:53 PM87 °FSunny.No wind43%29.87 "Hg10 mi
3:53 PM87 °FPassing clouds.7 mph42%29.88 "Hg10 mi
2:53 PM87 °FPassing clouds.6 mph45%29.90 "Hg10 mi
1:53 PM86 °FPassing clouds.N/A48%29.92 "Hg10 mi
12:53 PM85 °FPassing clouds.13 mph50%29.94 "Hg10 mi
11:53 AM83 °FSunny.10 mph57%29.97 "Hg10 mi
10:53 AM80 °FSunny.8 mph67%29.98 "Hg10 mi
9:53 AM77 °FSunny.7 mph71%29.98 "Hg10 mi
8:53 AM73 °FSunny.7 mph79%29.97 "Hg10 mi
7:53 AM69 °FClear.5 mph87%29.96 "Hg10 mi
6:53 AM67 °FClear.3 mph90%29.96 "Hg10 mi
5:53 AM68 °FClear.No wind87%29.95 "Hg10 mi
Weather by CustomWeather, © 2014

See weather overviewHow to use our weather pages